Погода в Покатах

Россия / Псковская область     57°16′45″N   28°13′14″E
темп.,
°C
ветер,
м/с
пор.,
м/с
влажн.,
%
обл.,
%
осадки,
мм/ч
давл.,
гПа
погр.,
м
16 мая, вс
вс1600:00+11з339469 0.2 100557
03:00+10зсз249753 0.2 100775
06:00+10зюз37945 0.0 1007189
09:00+13з358013 0.0 1009448
12:00+18з33515 0.0 10101149
15:00+21зюз12465 0.0 10101632
18:00+20юв234998 0.0 10091559
21:00+16вюв3668100 0.0 1009111
17 мая, пн
пн1700:00+12юв35899 0.0 101071
03:00+11вюв379440 0.0 1010123
06:00+12юв4129096 0.0 1010281
09:00+17юв5973100 0.0 1009578
12:00+21ююв6959100 0.1 10081542
15:00+20ююв5970100 1.3 10091212
18:00+17ююз3786100 1.1 1009331
21:00+15св2592100 1.5 1007102
18 мая, вт
вт1800:00+14св51294100 2.4 1004353
03:00+14св41098100 4.4 1002315
06:00+15в4119881 2.4 999446
09:00+17юв5119398 5.9 999784
12:00+17юв71290100 0.8 998985
15:00+19ююв8127296 1.2 9991360
18:00+16ю71282100 0.4 1001934
21:00+15ююз6987100 0.4 1002566
19 мая, ср
ср1900:00+12зюз3791100 0.0 1004393
03:00+11з269393 0.0 1005355
06:00+10сз3895100 0.0 1005300
09:00+13ссз4685100 0.0 1005540
12:00+13с4691100 1.8 1005521
15:00+12с3792100 2.3 1006466
18:00+12с3793100 0.3 1005341
21:00+12ссз3896100 0.8 1005305
20 мая, чт
чт2000:00+11с4896100 0.1 1004270
03:00+11с3797100 0.3 1003226
06:00+11ссв3699100 4.6 1002297
09:00+11ссз4698100 10.4 1001230
12:00+11зсз4596100 0.5 1001449
15:00+11зюз5894100 0.7 1002718
18:00+10з61394100 2.2 1004749
21:00+10зюз5129197 2.6 1006635